Sisseton, SD

11:45 AM CDT on April 23, 2018 (GMT -0500)
Sisseton

Weather History for K8D3 - July, 2013

Change the Weather History Date:

Friday, July 5, 2013

  Actual Average Record
Temperature  
Mean Temperature 78 °F 70 °F  
Max Temperature 89 °F 82 °F 103 °F (1988)
Min Temperature 67 °F 59 °F 44 °F (1950)
Degree Days  
Heating Degree Days 0 0  
Month to date heating degree days 0 3  
Since 1 June heating degree days 69 65  
Since 1 July heating degree days 0 3  
Cooling Degree Days 13 6  
Month to date cooling degree days 42 29  
Year to date cooling degree days 184 146  
Since 1 June cooling degree days 159 123  
Growing Degree Days 27 (Base 50)    
Moisture  
Dew Point 63 °F    
Average Humidity 59    
Maximum Humidity 81    
Minimum Humidity 36    
Precipitation  
Precipitation 0.00 in 0.11 in 1.40 in (1998)
Month to date precipitation 0.00 0.56  
Year to date precipitation 14.92 11.28  
Sea Level Pressure  
Sea Level Pressure 29.69 in    
Wind  
Wind Speed 5 mph (WSW)    
Max Wind Speed 12 mph    
Max Gust Speed 16 mph    
T = Trace of Precipitation, MM = Missing Value Source: NWS Daily Summary

Daily Weather History Graph

Daily Weather History Graph

Search for Another Location

Airport or City:

Astronomy

Jul. 05, 2013 Rise Set
Actual Time 5:45 AM CDT 9:19 PM CDT
Civil Twilight 5:07 AM CDT 9:57 PM CDT
Nautical Twilight 4:17 AM CDT 10:47 PM CDT
Astronomical Twilight 3:11 AM CDT 11:52 PM CDT
Moon 3:48 AM CDT (7/5) 7:12 PM CDT (7/5)
Length of Visible Light 16h 49m
Length of Day
15h 34m
Waning Crescent, 6% of the Moon is Illuminated
Jul 5
Waning Crescent
Jul 8
New
Jul 15
First Quarter
Jul 22
Full
Jul 29
Last Quarter

Hourly Weather History & Observations

Time (CDT) Temp. Heat Index Dew Point Humidity Pressure Visibility Wind Dir Wind Speed Gust Speed Precip Events Conditions
12:56 AM 77.0 °F - 63.0 °F 62% 29.67 in - SW 9.2 mph - N/A   Unknown
1:56 AM 75.9 °F - 62.1 °F 62% 29.68 in - SW 9.2 mph - N/A   Unknown
2:56 AM 72.0 °F - 62.1 °F 71% 29.68 in - South 6.9 mph - N/A   Unknown
3:56 AM 71.1 °F - 60.1 °F 68% 29.68 in - SE 3.5 mph - N/A   Unknown
4:56 AM 68.0 °F - 60.1 °F 76% 29.68 in - East 6.9 mph - N/A   Unknown
5:56 AM 66.9 °F - 60.1 °F 79% 29.68 in - SE 6.9 mph - N/A   Unknown
6:56 AM 68.0 °F - 61.0 °F 78% 29.68 in - South 5.8 mph - N/A   Unknown
7:56 AM 72.0 °F - 61.0 °F 68% 29.68 in - SSW 8.1 mph - N/A   Unknown
8:56 AM 75.9 °F - 64.0 °F 67% 29.69 in - WNW 3.5 mph - N/A   Unknown
9:56 AM 79.0 °F - 64.0 °F 60% 29.69 in - NW 3.5 mph - N/A   Unknown
10:56 AM 81.0 °F 83.0 °F 66.0 °F 60% 29.69 in - Calm Calm - N/A   Unknown
11:56 AM 84.0 °F 86.3 °F 66.0 °F 55% 29.68 in - NNE 5.8 mph - N/A   Unknown
12:56 PM 86.0 °F 87.6 °F 64.9 °F 49% 29.68 in - Variable 4.6 mph - N/A   Unknown
1:56 PM 86.0 °F 86.8 °F 63.0 °F 46% 29.68 in - North 9.2 mph - N/A   Unknown
2:56 PM 86.0 °F 85.7 °F 60.1 °F 41% 29.69 in - NNW 4.6 mph - N/A   Unknown
3:56 PM 88.0 °F 86.9 °F 57.9 °F 36% 29.68 in - WNW 10.4 mph - N/A   Unknown
4:56 PM 87.1 °F 86.1 °F 57.9 °F 37% 29.70 in - NNW 6.9 mph - N/A   Unknown
5:56 PM 87.1 °F 86.7 °F 60.1 °F 40% 29.70 in - NW 4.6 mph - N/A   Unknown
6:56 PM 84.9 °F 85.9 °F 63.0 °F 48% 29.69 in - Calm Calm - N/A   Unknown
7:56 PM 82.9 °F 85.0 °F 66.0 °F 56% 29.69 in - Calm Calm - N/A   Unknown
8:56 PM 81.0 °F 82.7 °F 64.9 °F 58% 29.68 in - Calm Calm - N/A   Unknown
9:56 PM 77.0 °F - 69.1 °F 76% 29.70 in - WSW 3.5 mph - N/A   Unknown
10:56 PM 75.0 °F - 66.9 °F 76% 29.71 in - WSW 3.5 mph - N/A   Unknown
11:56 PM 73.0 °F - 66.9 °F 81% 29.71 in - SW 3.5 mph - N/A   Unknown